Flag for U.S.A. Weather past 2 weeks in Bismarck, North Dakota, U.S.A.

Now
50 °F

Sunny.


Feels Like: 46 °F
Forecast: 36 / 59 °F
Wind: 12 mph from East

Location: Bismarck Municipal Airport

Current Time: May 30, 2015 at 12:09:08 PM

Latest Report: May 30, 2015 at 11:52 AM


Visibility: 10 mi

Pressure: 30.40 "Hg

Humidity: 48%

Dew point: 31 °F

Location of BismarckLocation

Historic Weather in Bismarck — Graph

°F

Bismarck temperature yesterday

Maximum temperature yesterday: 61 °F (at 12:52 AM)
Minimum temperature yesterday: 47 °F (at 11:52 PM)
Average temperature yesterday: 53 °F

Past Weeks' High & Low Weather Summary

 TemperatureHumidityPressure
High82 °F (May 26, 3:52 PM)97% (May 16, 7:52 AM)30.51 "Hg (May 16, 7:52 AM)
Low27 °F (May 19, 4:52 AM)18% (May 21, 4:52 PM)29.57 "Hg (May 16, 6:52 PM)
Average56 °F67%30.05 "Hg
* Reported May 15 10:52 AM — May 30 10:52 AM, Bismarck, Weather by CustomWeather, © 2015

Note: Actual official high and low records may vary slightly from our data, if they occured in-between our weather recording intervals... More about our weather records

Advertising

Bismarck weather history for previous 24 hours

 ConditionsComfort  
Time TempWeatherWind HumidityBarometerVisibility
10:52 AM
Sat, May 30
47 °FSunny.9 mph50%30.42 "Hg10 mi
9:52 AM45 °FSunny.10 mph53%30.43 "Hg10 mi
8:52 AM42 °FSunny.10 mph60%30.45 "Hg10 mi
7:52 AM39 °FSunny.12 mph73%30.43 "Hg10 mi
6:52 AM35 °FClear.6 mph88%30.44 "Hg10 mi
5:52 AM32 °FClear.5 mph92%30.42 "Hg10 mi
4:52 AM35 °FClear.8 mph88%30.40 "Hg10 mi
3:52 AM35 °FClear.5 mph88%30.39 "Hg10 mi
2:52 AM39 °FClear.8 mph82%30.37 "Hg10 mi
1:52 AM41 °FClear.8 mph76%30.36 "Hg10 mi
12:52 AM42 °FClear.7 mph76%30.34 "Hg10 mi
11:52 PM
Fri, May 29
47 °FClear.7 mph61%30.32 "Hg10 mi
10:52 PM50 °FClear.7 mph52%30.33 "Hg10 mi
9:52 PM51 °FSunny.7 mph52%30.31 "Hg10 mi
8:52 PM54 °FSunny.8 mph47%30.30 "Hg10 mi
7:52 PM56 °FSunny.13 mph44%30.29 "Hg10 mi
6:52 PM57 °FSunny.13 mph42%30.27 "Hg10 mi
5:52 PM57 °FSunny.14 mph44%30.27 "Hg10 mi
4:52 PM58 °FPassing clouds.13 mph44%30.27 "Hg10 mi
3:52 PM55 °FPartly sunny.14 mph47%30.28 "Hg10 mi
2:52 PM54 °FOvercast.16 mph49%30.28 "Hg10 mi
1:52 PM53 °FOvercast.17 mph48%30.27 "Hg10 mi
12:52 PM52 °FOvercast.17 mph53%30.27 "Hg10 mi
Weather by CustomWeather, © 2015

See weather overviewHow to use our weather pages